STARLINK-5757, 55580

Orbit data source: Space-Track

STARLINK-5757, 55580 is a payload satellite owned by SpaceX/Seattle (US) in LEO that was launched on Sun, 12 Feb 2023 UTC via an FALCON 9 launch vehicle from the Air Force Eastern Test Range (AFETR). Payload-class satellites include a variety of spacecraft equipped with specific instruments for various scientific and technological missions. These include communications satellites like Starlink; space stations such as the ISS; scientific satellites like the Hubble; Earth observation satellites from companies like Planet Labs, Umbra, and HawkEye 360; GPS; miniature CubeSats for education and research; and military/defense satellites.

Loading next visibility...
Identifier
55580, 2023-020M
Orbit
LEO
Country
Flag of USUS
Related business
Manufacturer
SpaceX/Seattle
Mission
Operational Commercial Communications
Bus & Motor
STARLINK, Unknown motor
Mass
305 kg wet, ~290 kg dry
Launch date (UTC)
2023-02-12 (4 years ago)
Launch vehicle
FALCON 9
Launch site
Air Force Eastern Test Range (AFETR)
Object type
Payload
Rocket body
Debris
Shape & HBR
Box + 1 Pan, 10.1 m
Radar Cross Section
13.562 m², Large (>1 m²)

Expand to show TLE details & history
Last TLE update: 9 hours ago

TLE from 9 hours ago
0 STARLINK-5757
1 55580U 23020M   26264.16111763  .00000772  00000-0  37561-4 0  9998
2 55580  43.0019 315.6314 0001478 275.4875  84.5808 15.27580072199103
Epoch: 2026-09-21T03:52Z
TLE epoch observation values (Epoch: 2026-09-21T03:52:00.563Z)
Latitude
-0.00001°
Longitude
-102.41588°
Altitude
482.729 km
Speed
7.626 km/s
True Right ascension
21h 02m 31s
True Declination
0° 00' 00"
Sunlit
Object was in full shadow at epoch
Visualization orbit readout
Latitude
Unknown
Longitude
Unknown
Altitude
Unknown
Speed
Unknown
Apparent Right ascension
Unknown
Apparent Declination
Unknown
Sunlit
N/A
Visualization observer readout
Local Sidereal Time
06:00:27
Azimuth
Unknown
Elevation
Unknown
Doppler factor
Unknown
Orbital elements
Apogee altitude
486.008 km
Perigee altitude
483.979 km
Semi-major axis
6,863.131 km
Eccentricity
0.00015
Inclination
43.0019°
RAAN
315.6314°
Arg. of periapsis
275.4875°
True anomaly
84.59766°
Mean anomaly
84.5808°
Eccentric anomaly
84.58923°
Mean motion
3.81733 °/min
Orbital period
94.31 mins
BSTAR
0.000037561
Loading maneuver chart data...
Computing Atmospheric mass density...
Loading historical data...
Loading historical data...
Loading historical data...
Loading historical data...
Loading historical data...
Loading historical data...
Loading historical data...

Documentation

Showing up to 5 results
|